| time (UTC) | temp C | wind direction | speed KPH | gust KPH | rain 1hr cm | rain 24hr cm | rain mn cm | humidity % | barometer mb |
| 20260505123804 | 10 | 28 | 4.8 | 12.9 | 0.00 | 0.00 | 0.00 | 86 | 1008.8 |
| 20260505123303 | 10 | 41 | 9.7 | 20.9 | 0.00 | 0.00 | 0.00 | 85 | 1008.9 |
| 20260505122804 | 10 | 26 | 8.0 | 16.1 | 0.00 | 0.00 | 0.00 | 85 | 1009.1 |
| 20260505122305 | 9 | 33 | 9.7 | 22.5 | 0.00 | 0.00 | 0.00 | 85 | 1009.2 |
| 20260505121804 | 9 | 61 | 11.3 | 20.9 | 0.00 | 0.00 | 0.00 | 86 | 1008.5 |
| 20260505121304 | 9 | 56 | 9.7 | 14.5 | 0.00 | 0.00 | 0.00 | 86 | 1008.8 |
| 20260505120804 | 9 | 356 | 9.7 | 14.5 | 0.00 | 0.00 | 0.00 | 86 | 1009.8 |
| 20260505120304 | 9 | 35 | 9.7 | 16.1 | 0.00 | 0.00 | 0.00 | 86 | 1009.2 |
| 20260505114804 | 10 | 46 | 14.5 | 20.9 | 0.00 | 0.00 | 0.00 | 86 | 1008.0 |
| 20260505114304 | 10 | 41 | 9.7 | 16.1 | 0.00 | 0.00 | 0.00 | 85 | 1008.4 |
| 20260505113803 | 10 | 48 | 6.4 | 22.5 | 0.00 | 0.00 | 0.00 | 85 | 1008.4 |
| 20260505113304 | 10 | 39 | 11.3 | 22.5 | 0.00 | 0.00 | 0.00 | 86 | 1007.9 |
| 20260505112803 | 10 | 56 | 12.9 | 16.1 | 0.00 | 0.00 | 0.00 | 86 | 1007.8 |
| 20260505112305 | 10 | 44 | 11.3 | 20.9 | 0.00 | 0.00 | 0.00 | 86 | 1008.0 |
| 20260505111803 | 10 | 44 | 12.9 | 20.9 | 0.00 | 0.00 | 0.00 | 87 | 1007.8 |
| 20260505111304 | 10 | 54 | 9.7 | 19.3 | 0.00 | 0.00 | 0.00 | 88 | 1007.9 |
| 20260505110304 | 10 | 32 | 9.7 | 22.5 | 0.00 | 0.00 | 0.00 | 89 | 1008.1 |
| 20260505101804 | 10 | 44 | 9.7 | 16.1 | 0.00 | 0.00 | 0.00 | 90 | 1007.8 |
| 20260505101303 | 10 | 30 | 4.8 | 12.9 | 0.00 | 0.00 | 0.00 | 90 | 1008.1 |
| 20260505100804 | 10 | 33 | 4.8 | 12.9 | 0.00 | 0.00 | 0.00 | 89 | 1008.3 |
| 20260505095804 | 11 | 3 | 11.3 | 20.9 | 0.00 | 0.00 | 0.00 | 88 | 1007.0 |
| 20260505095305 | 11 | 62 | 14.5 | 20.9 | 0.00 | 0.00 | 0.00 | 87 | 1006.7 |
| 20260505094804 | 11 | 63 | 11.3 | 16.1 | 0.00 | 0.00 | 0.00 | 86 | 1007.8 |
| 20260505094303 | 11 | 29 | 9.7 | 14.5 | 0.00 | 0.00 | 0.00 | 87 | 1008.2 |
| 20260505093804 | 11 | 40 | 8.0 | 19.3 | 0.00 | 0.00 | 0.00 | 88 | 1008.1 |
| 20260505093303 | 11 | 38 | 8.0 | 19.3 | 0.00 | 0.00 | 0.00 | 88 | 1008.0 |
| 20260505092804 | 11 | 35 | 11.3 | 19.3 | 0.00 | 0.00 | 0.00 | 88 | 1007.7 |
| 20260505092305 | 11 | 15 | 8.0 | 14.5 | 0.00 | 0.00 | 0.00 | 89 | 1007.8 |
| 20260505091805 | 11 | 22 | 8.0 | 16.1 | 0.00 | 0.00 | 0.00 | 89 | 1007.4 |
| 20260505090803 | 11 | 56 | 11.3 | 22.5 | 0.00 | 0.00 | 0.00 | 90 | 1006.0 |
| 20260505090303 | 11 | 64 | 14.5 | 29.0 | 0.00 | 0.00 | 0.00 | 90 | 1006.0 |
| 20260505085804 | 11 | 53 | 14.5 | 22.5 | 0.00 | 0.00 | 0.00 | 90 | 1006.0 |
| 20260505085305 | 11 | 48 | 12.9 | 27.4 | 0.00 | 0.00 | 0.00 | 89 | 1006.5 |
| 20260505084803 | 11 | 52 | 12.9 | 20.9 | 0.00 | 0.00 | 0.00 | 88 | 1006.5 |
| 20260505084304 | 11 | 47 | 17.7 | 27.4 | 0.00 | 0.00 | 0.00 | 89 | 1006.5 |
| 20260505083804 | 12 | 45 | 14.5 | 24.1 | 0.00 | 0.00 | 0.00 | 90 | 1006.8 |
| 20260505082305 | 12 | 40 | 16.1 | 25.7 | 0.00 | 0.00 | 0.00 | 90 | 1006.1 |
| 20260505081803 | 12 | 29 | 12.9 | 22.5 | 0.00 | 0.00 | 0.00 | 90 | 1006.1 |
| 20260505081303 | 12 | 19 | 14.5 | 24.1 | 0.00 | 0.00 | 0.00 | 90 | 1006.2 |
| 20260505080803 | 13 | 27 | 14.5 | 22.5 | 0.00 | 0.00 | 0.00 | 89 | 1006.0 |
| 20260505080304 | 13 | 23 | 14.5 | 22.5 | 0.00 | 0.00 | 0.00 | 89 | 1006.0 |
| 20260505075804 | 13 | 27 | 14.5 | 25.7 | 0.00 | 0.00 | 0.00 | 88 | 1005.7 |
| 20260505075304 | 13 | 33 | 12.9 | 24.1 | 0.00 | 0.00 | 0.00 | 86 | 1005.4 |
| 20260505074804 | 13 | 34 | 14.5 | 24.1 | 0.00 | 0.00 | 0.00 | 86 | 1005.6 |
| 20260505073804 | 16 | 12 | 14.5 | 25.7 | 0.00 | 0.00 | 0.00 | 78 | 1005.6 |
| 20260505073304 | 17 | 356 | 14.5 | 32.2 | 0.00 | 0.00 | 0.00 | 71 | 1005.9 |
| 20260505072803 | 19 | 301 | 19.3 | 45.1 | 0.00 | 0.00 | 0.00 | 67 | 1005.9 |
| 20260505072305 | 19 | 280 | 6.4 | 12.9 | 0.00 | 0.00 | 0.00 | 74 | 1004.5 |
| 20260505071803 | 19 | 259 | 4.8 | 8.0 | 0.00 | 0.00 | 0.00 | 73 | 1004.3 |
| 20260505071304 | 19 | 242 | 6.4 | 9.7 | 0.00 | 0.00 | 0.00 | 72 | 1004.3 |
| 20260505070803 | 19 | 233 | 8.0 | 12.9 | 0.00 | 0.00 | 0.00 | 72 | 1004.4 |
| 20260505070304 | 19 | 244 | 4.8 | 11.3 | 0.00 | 0.00 | 0.00 | 72 | 1004.3 |
| 20260505065804 | 19 | 237 | 8.0 | 11.3 | 0.00 | 0.00 | 0.00 | 72 | 1004.3 |
| 20260505065304 | 19 | 244 | 8.0 | 12.9 | 0.00 | 0.00 | 0.00 | 72 | 1004.2 |
| 20260505064803 | 19 | 220 | 8.0 | 12.9 | 0.00 | 0.00 | 0.00 | 72 | 1004.1 |
| 20260505064303 | 19 | 217 | 4.8 | 9.7 | 0.00 | 0.00 | 0.00 | 71 | 1004.0 |
| 20260505063304 | 19 | 219 | 6.4 | 11.3 | 0.00 | 0.00 | 0.00 | 72 | 1004.1 |
| 20260505062803 | 19 | 218 | 6.4 | 12.9 | 0.00 | 0.00 | 0.00 | 72 | 1004.2 |
| 20260505062304 | 19 | 234 | 8.0 | 11.3 | 0.00 | 0.00 | 0.00 | 71 | 1004.4 |
| 20260505061804 | 20 | 233 | 8.0 | 9.7 | 0.00 | 0.00 | 0.00 | 71 | 1004.3 |
| 20260505061304 | 20 | 220 | 6.4 | 11.3 | 0.00 | 0.00 | 0.00 | 71 | 1004.3 |
| 20260505060803 | 20 | 211 | 6.4 | 11.3 | 0.00 | 0.00 | 0.00 | 71 | 1004.2 |
| 20260505055803 | 20 | 211 | 3.2 | 12.9 | 0.00 | 0.00 | 0.00 | 71 | 1004.0 |
| 20260505055304 | 20 | 196 | 4.8 | 9.7 | 0.00 | 0.00 | 0.00 | 71 | 1004.1 |
| 20260505054804 | 20 | 202 | 6.4 | 11.3 | 0.00 | 0.00 | 0.00 | 70 | 1004.1 |
| 20260505054303 | 20 | 207 | 6.4 | 11.3 | 0.00 | 0.00 | 0.00 | 70 | 1004.0 |
| 20260505053804 | 20 | 201 | 6.4 | 11.3 | 0.00 | 0.00 | 0.00 | 70 | 1003.8 |
| 20260505053304 | 20 | 201 | 6.4 | 12.9 | 0.00 | 0.00 | 0.00 | 69 | 1003.9 |
| 20260505052804 | 20 | 198 | 8.0 | 9.7 | 0.00 | 0.00 | 0.00 | 69 | 1003.9 |
| 20260505051804 | 20 | 215 | 8.0 | 16.1 | 0.00 | 0.00 | 0.00 | 69 | 1004.0 |
| 20260505050812 | 20 | 219 | 8.0 | 12.9 | 0.00 | 0.00 | 0.00 | 70 | 1004.0 |
| 20260505050303 | 20 | 189 | 4.8 | 12.9 | 0.00 | 0.00 | 0.00 | 70 | 1004.0 |
| 20260505041304 | 21 | 213 | 1.6 | 4.8 | 0.00 | 0.00 | 0.00 | 66 | 1004.5 |
| 20260505040804 | 21 | 197 | 4.8 | 11.3 | 0.00 | 0.00 | 0.00 | 65 | 1004.5 |
| 20260505035304 | 21 | 211 | 6.4 | 12.9 | 0.00 | 0.00 | 0.00 | 65 | 1004.8 |
| 20260505034804 | 21 | 198 | 6.4 | 11.3 | 0.00 | 0.00 | 0.00 | 65 | 1004.9 |
| 20260505034304 | 21 | 193 | 3.2 | 9.7 | 0.00 | 0.00 | 0.00 | 65 | 1005.0 |
| 20260505033806 | 21 | 200 | 4.8 | 9.7 | 0.00 | 0.00 | 0.00 | 64 | 1005.0 |
| 20260505033304 | 21 | 205 | 4.8 | 9.7 | 0.00 | 0.00 | 0.00 | 65 | 1005.0 |
| 20260505032803 | 21 | 217 | 4.8 | 11.3 | 0.00 | 0.00 | 0.00 | 64 | 1005.0 |
| 20260505032304 | 21 | 211 | 4.8 | 8.0 | 0.00 | 0.00 | 0.00 | 66 | 1005.0 |
| 20260505031803 | 21 | 222 | 4.8 | 8.0 | 0.00 | 0.00 | 0.00 | 65 | 1004.9 |
| 20260505031304 | 21 | 206 | 3.2 | 11.3 | 0.00 | 0.00 | 0.00 | 65 | 1004.8 |
| 20260505030803 | 21 | 231 | 1.6 | 8.0 | 0.00 | 0.00 | 0.00 | 64 | 1004.8 |
| 20260505030303 | 21 | 226 | 3.2 | 8.0 | 0.00 | 0.00 | 0.00 | 64 | 1004.7 |
| 20260505025804 | 21 | 257 | 4.8 | 8.0 | 0.00 | 0.00 | 0.00 | 63 | 1004.7 |
| 20260505025305 | 22 | 252 | 4.8 | 12.9 | 0.00 | 0.00 | 0.00 | 63 | 1004.5 |
| 20260505024803 | 22 | 215 | 3.2 | 8.0 | 0.00 | 0.00 | 0.00 | 62 | 1004.4 |
| 20260505023803 | 22 | 243 | 3.2 | 9.7 | 0.00 | 0.00 | 0.00 | 62 | 1004.2 |
| 20260505022304 | 22 | 229 | 9.7 | 22.5 | 0.00 | 0.00 | 0.00 | 62 | 1003.9 |
| 20260505021804 | 22 | 227 | 11.3 | 24.1 | 0.00 | 0.00 | 0.00 | 62 | 1003.8 |
| 20260505020803 | 22 | 209 | 11.3 | 16.1 | 0.00 | 0.00 | 0.00 | 62 | 1003.4 |
| 20260505020303 | 22 | 221 | 8.0 | 14.5 | 0.00 | 0.00 | 0.00 | 62 | 1003.5 |
| 20260505015803 | 22 | 233 | 9.7 | 19.3 | 0.00 | 0.00 | 0.00 | 61 | 1003.5 |
| 20260505015304 | 22 | 201 | 11.3 | 20.9 | 0.00 | 0.00 | 0.00 | 61 | 1003.2 |
| 20260505014804 | 22 | 204 | 11.3 | 20.9 | 0.00 | 0.00 | 0.00 | 62 | 1003.0 |
| 20260505014304 | 22 | 198 | 11.3 | 19.3 | 0.00 | 0.00 | 0.00 | 62 | 1002.8 |
| 20260505013804 | 22 | 200 | 12.9 | 22.5 | 0.00 | 0.00 | 0.00 | 62 | 1002.8 |
| 20260505013304 | 23 | 197 | 11.3 | 24.1 | 0.00 | 0.00 | 0.00 | 62 | 1002.8 |
| 20260505012804 | 23 | 203 | 16.1 | 25.7 | 0.00 | 0.00 | 0.00 | 61 | 1002.8 |
| 20260505012304 | 23 | 200 | 17.7 | 24.1 | 0.00 | 0.00 | 0.00 | 62 | 1002.8 |
| 20260505011804 | 23 | 189 | 12.9 | 22.5 | 0.00 | 0.00 | 0.00 | 62 | 1003.0 |
| 20260505011303 | 23 | 215 | 9.7 | 14.5 | 0.00 | 0.00 | 0.00 | 62 | 1003.2 |
| 20260505010804 | 23 | 200 | 8.0 | 14.5 | 0.00 | 0.00 | 0.00 | 62 | 1003.0 |
| 20260505010304 | 23 | 190 | 9.7 | 20.9 | 0.00 | 0.00 | 0.00 | 60 | 1002.9 |
| 20260505005804 | 23 | 208 | 12.9 | 24.1 | 0.00 | 0.00 | 0.00 | 60 | 1002.7 |
| 20260505004804 | 23 | 202 | 12.9 | 22.5 | 0.00 | 0.00 | 0.00 | 59 | 1002.9 |
| 20260505003804 | 24 | 211 | 16.1 | 22.5 | 0.00 | 0.00 | 0.00 | 59 | 1003.0 |
| 20260505003304 | 24 | 217 | 14.5 | 20.9 | 0.00 | 0.00 | 0.00 | 60 | 1003.0 |
| 20260505002804 | 24 | 210 | 14.5 | 24.1 | 0.00 | 0.00 | 0.00 | 60 | 1002.8 |
| 20260505002304 | 24 | 223 | 12.9 | 20.9 | 0.00 | 0.00 | 0.00 | 60 | 1002.8 |
| 20260505001304 | 25 | 216 | 16.1 | 25.7 | 0.00 | 0.00 | 0.00 | 59 | 1002.7 |
| 20260505000804 | 25 | 203 | 16.1 | 22.5 | 0.00 | 0.00 | 0.00 | 58 | 1002.6 |
| 20260504235804 | 25 | 203 | 14.5 | 25.7 | 0.00 | 0.00 | 0.00 | 57 | 1002.5 |
| 20260504235304 | 25 | 209 | 14.5 | 25.7 | 0.00 | 0.00 | 0.00 | 56 | 1002.4 |
| 20260504234803 | 25 | 204 | 14.5 | 24.1 | 0.00 | 0.00 | 0.00 | 56 | 1002.4 |
| 20260504234304 | 25 | 194 | 11.3 | 24.1 | 0.00 | 0.00 | 0.00 | 56 | 1002.4 |
| 20260504233804 | 25 | 206 | 19.3 | 25.7 | 0.00 | 0.00 | 0.00 | 55 | 1002.4 |
| 20260504233304 | 25 | 201 | 14.5 | 22.5 | 0.00 | 0.00 | 0.00 | 55 | 1002.4 |
| 20260504232803 | 25 | 206 | 16.1 | 22.5 | 0.00 | 0.00 | 0.00 | 54 | 1002.4 |
| 20260504232304 | 26 | 206 | 14.5 | 22.5 | 0.00 | 0.00 | 0.00 | 55 | 1002.6 |
| 20260504231804 | 26 | 206 | 11.3 | 22.5 | 0.00 | 0.00 | 0.00 | 55 | 1002.5 |
| 20260504231304 | 26 | 203 | 16.1 | 24.1 | 0.00 | 0.00 | 0.00 | 54 | 1002.5 |
| 20260504230304 | 26 | 208 | 11.3 | 20.9 | 0.00 | 0.00 | 0.00 | 54 | 1002.5 |
| 20260504225804 | 26 | 198 | 11.3 | 19.3 | 0.00 | 0.00 | 0.00 | 55 | 1002.5 |
| 20260504225304 | 26 | 189 | 11.3 | 19.3 | 0.00 | 0.00 | 0.00 | 54 | 1002.4 |
| 20260504224803 | 26 | 205 | 11.3 | 19.3 | 0.00 | 0.00 | 0.00 | 54 | 1002.5 |
| 20260504224304 | 26 | 214 | 12.9 | 16.1 | 0.00 | 0.00 | 0.00 | 53 | 1002.5 |
| 20260504223804 | 26 | 213 | 14.5 | 19.3 | 0.00 | 0.00 | 0.00 | 53 | 1002.4 |
| 20260504223304 | 26 | 225 | 12.9 | 19.3 | 0.00 | 0.00 | 0.00 | 52 | 1002.4 |
| 20260504222305 | 27 | 198 | 11.3 | 27.4 | 0.00 | 0.00 | 0.00 | 51 | 1002.3 |
| 20260504221804 | 27 | 221 | 17.7 | 22.5 | 0.00 | 0.00 | 0.00 | 49 | 1002.3 |
| 20260504221304 | 27 | 195 | 16.1 | 25.7 | 0.00 | 0.00 | 0.00 | 49 | 1002.3 |
| 20260504220804 | 27 | 199 | 12.9 | 22.5 | 0.00 | 0.00 | 0.00 | 49 | 1002.3 |
| 20260504220303 | 27 | 204 | 12.9 | 22.5 | 0.00 | 0.00 | 0.00 | 49 | 1002.3 |
| 20260504215804 | 27 | 189 | 9.7 | 20.9 | 0.00 | 0.00 | 0.00 | 50 | 1002.4 |
| 20260504215304 | 27 | 214 | 17.7 | 25.7 | 0.00 | 0.00 | 0.00 | 49 | 1002.5 |
| 20260504214804 | 27 | 225 | 19.3 | 24.1 | 0.00 | 0.00 | 0.00 | 48 | 1002.6 |
| 20260504214305 | 27 | 225 | 20.9 | 25.7 | 0.00 | 0.00 | 0.00 | 48 | 1002.6 |
| 20260504213804 | 27 | 226 | 19.3 | 27.4 | 0.00 | 0.00 | 0.00 | 47 | 1002.6 |
| 20260504213303 | 27 | 226 | 19.3 | 25.7 | 0.00 | 0.00 | 0.00 | 46 | 1002.6 |
| 20260504212804 | 27 | 226 | 14.5 | 22.5 | 0.00 | 0.00 | 0.00 | 48 | 1002.6 |
| 20260504212304 | 27 | 214 | 16.1 | 24.1 | 0.00 | 0.00 | 0.00 | 47 | 1002.7 |
| 20260504211803 | 27 | 227 | 19.3 | 29.0 | 0.00 | 0.00 | 0.00 | 46 | 1002.7 |
| 20260504211303 | 27 | 233 | 17.7 | 29.0 | 0.00 | 0.00 | 0.00 | 48 | 1002.8 |
| 20260504210804 | 27 | 223 | 17.7 | 29.0 | 0.00 | 0.00 | 0.00 | 48 | 1002.8 |
| 20260504210304 | 27 | 223 | 17.7 | 25.7 | 0.00 | 0.00 | 0.00 | 47 | 1002.9 |
| 20260504205803 | 27 | 225 | 22.5 | 32.2 | 0.00 | 0.00 | 0.00 | 47 | 1003.1 |
| 20260504205304 | 27 | 221 | 22.5 | 32.2 | 0.00 | 0.00 | 0.00 | 46 | 1003.2 |
| 20260504204804 | 27 | 223 | 20.9 | 32.2 | 0.00 | 0.00 | 0.00 | 48 | 1003.3 |
| 20260504204303 | 27 | 215 | 16.1 | 24.1 | 0.00 | 0.00 | 0.00 | 49 | 1003.3 |
| 20260504203804 | 26 | 223 | 19.3 | 27.4 | 0.00 | 0.00 | 0.00 | 50 | 1003.4 |
| 20260504203303 | 27 | 222 | 17.7 | 25.7 | 0.00 | 0.00 | 0.00 | 49 | 1003.5 |
| 20260504202803 | 27 | 226 | 17.7 | 27.4 | 0.00 | 0.00 | 0.00 | 49 | 1003.5 |
| 20260504202305 | 26 | 207 | 17.7 | 27.4 | 0.00 | 0.00 | 0.00 | 48 | 1003.5 |
| 20260504201804 | 26 | 227 | 16.1 | 24.1 | 0.00 | 0.00 | 0.00 | 50 | 1003.6 |
| 20260504201303 | 26 | 228 | 20.9 | 29.0 | 0.00 | 0.00 | 0.00 | 48 | 1003.6 |
| 20260504200803 | 26 | 220 | 16.1 | 27.4 | 0.00 | 0.00 | 0.00 | 49 | 1003.7 |
| 20260504195804 | 26 | 211 | 20.9 | 27.4 | 0.00 | 0.00 | 0.00 | 48 | 1003.7 |
| 20260504195304 | 26 | 213 | 20.9 | 32.2 | 0.00 | 0.00 | 0.00 | 49 | 1003.7 |
| 20260504194803 | 26 | 220 | 20.9 | 32.2 | 0.00 | 0.00 | 0.00 | 48 | 1003.7 |
| 20260504194303 | 26 | 231 | 19.3 | 27.4 | 0.00 | 0.00 | 0.00 | 48 | 1003.8 |
| 20260504193804 | 26 | 198 | 17.7 | 25.7 | 0.00 | 0.00 | 0.00 | 48 | 1003.7 |
| 20260504193304 | 26 | 221 | 20.9 | 27.4 | 0.00 | 0.00 | 0.00 | 47 | 1003.9 |
| 20260504192804 | 26 | 204 | 20.9 | 32.2 | 0.00 | 0.00 | 0.00 | 48 | 1003.8 |
| 20260504192304 | 26 | 232 | 19.3 | 29.0 | 0.00 | 0.00 | 0.00 | 47 | 1003.9 |
| 20260504191804 | 26 | 211 | 20.9 | 27.4 | 0.00 | 0.00 | 0.00 | 49 | 1003.8 |
| 20260504191303 | 26 | 215 | 19.3 | 25.7 | 0.00 | 0.00 | 0.00 | 49 | 1003.9 |
| 20260504190803 | 26 | 203 | 16.1 | 24.1 | 0.00 | 0.00 | 0.00 | 49 | 1004.0 |
| 20260504190304 | 26 | 227 | 20.9 | 33.8 | 0.00 | 0.00 | 0.00 | 49 | 1004.0 |
| 20260504185304 | 26 | 235 | 19.3 | 29.0 | 0.00 | 0.00 | 0.00 | 48 | 1004.1 |
| 20260504184804 | 26 | 240 | 16.1 | 25.7 | 0.00 | 0.00 | 0.00 | 49 | 1004.1 |
| 20260504184303 | 26 | 224 | 20.9 | 27.4 | 0.00 | 0.00 | 0.00 | 49 | 1004.2 |
| 20260504183804 | 26 | 242 | 16.1 | 27.4 | 0.00 | 0.00 | 0.00 | 49 | 1004.1 |
| 20260504183304 | 26 | 230 | 19.3 | 27.4 | 0.00 | 0.00 | 0.00 | 50 | 1004.2 |
| 20260504182803 | 26 | 234 | 20.9 | 25.7 | 0.00 | 0.00 | 0.00 | 49 | 1004.1 |
| 20260504181304 | 25 | 222 | 25.7 | 32.2 | 0.00 | 0.00 | 0.00 | 49 | 1004.2 |
| 20260504180803 | 25 | 220 | 20.9 | 40.2 | 0.00 | 0.00 | 0.00 | 49 | 1004.4 |
| 20260504180303 | 25 | 243 | 20.9 | 33.8 | 0.00 | 0.00 | 0.00 | 49 | 1004.3 |
| 20260504175304 | 25 | 221 | 17.7 | 24.1 | 0.00 | 0.00 | 0.00 | 49 | 1004.5 |
| 20260504174303 | 25 | 237 | 19.3 | 27.4 | 0.00 | 0.00 | 0.00 | 49 | 1004.5 |
| 20260504173803 | 25 | 243 | 22.5 | 32.2 | 0.00 | 0.00 | 0.00 | 48 | 1004.5 |
| 20260504173304 | 24 | 226 | 19.3 | 35.4 | 0.00 | 0.00 | 0.00 | 49 | 1004.5 |
| 20260504172304 | 24 | 242 | 27.4 | 38.6 | 0.00 | 0.00 | 0.00 | 48 | 1004.5 |
| 20260504171804 | 24 | 237 | 27.4 | 37.0 | 0.00 | 0.00 | 0.00 | 48 | 1004.5 |
| 20260504171304 | 24 | 236 | 22.5 | 35.4 | 0.00 | 0.00 | 0.00 | 50 | 1004.5 |
| 20260504170804 | 24 | 237 | 29.0 | 37.0 | 0.00 | 0.00 | 0.00 | 49 | 1004.5 |
| 20260504160303 | 22 | 237 | 16.1 | 24.1 | 0.00 | 0.00 | 0.00 | 52 | 1004.8 |
| 20260504150803 | 21 | 228 | 25.7 | 33.8 | 0.00 | 0.00 | 0.00 | 52 | 1004.8 |
| 20260504150304 | 21 | 230 | 24.1 | 33.8 | 0.00 | 0.00 | 0.00 | 53 | 1004.7 |
| 20260504141304 | 20 | 224 | 27.4 | 35.4 | 0.00 | 0.00 | 0.00 | 54 | 1005.0 |
| 20260504140803 | 20 | 230 | 22.5 | 33.8 | 0.00 | 0.00 | 0.00 | 54 | 1005.1 |
| 20260504140304 | 19 | 225 | 22.5 | 32.2 | 0.00 | 0.00 | 0.00 | 55 | 1005.1 |
| 20260504130303 | 17 | 222 | 16.1 | 29.0 | 0.00 | 0.00 | 0.00 | 60 | 1005.0 |